FDX904 KMEM-KPHX

Flight info

Callsign FDX904
Flight time N/A
Altitude 28000
Route ZUMIT5 FOXOM DCT FSM DCT IRW J6 ZUN EAGUL6
Aircraft B77L/H-SDE1E2E3FGHIJ2J3J4J5M1RWXY/LB1D1

Departure

Time N/A
Airport Memphis International Airport (KMEM)

Arrival

Time 2026-05-05 01:30
Airport Phoenix Sky Harbor International Airport (KPHX)
Time Latitude Longitude Altitude Speed Heading
2026-05-05 00:55 34.97665 -108.90045 27763 ft 428 kts 265°
2026-05-05 00:56 34.97516 -108.93675 27758 ft 428 kts 265°
2026-05-05 00:56 34.97367 -108.97293 27768 ft 428 kts 265°
2026-05-05 00:56 34.97216 -109.00929 27772 ft 429 kts 265°
2026-05-05 00:56 34.97065 -109.04558 27765 ft 428 kts 265°
2026-05-05 00:57 34.96913 -109.08169 27779 ft 427 kts 264°
2026-05-05 00:57 34.96759 -109.11792 27773 ft 428 kts 264°
2026-05-05 00:57 34.96470 -109.15352 27763 ft 426 kts 257°
2026-05-05 00:57 34.95554 -109.18768 27779 ft 422 kts 245°
2026-05-05 00:58 34.94273 -109.21997 27769 ft 425 kts 245°
2026-05-05 00:58 34.93031 -109.25267 27774 ft 426 kts 246°
2026-05-05 00:58 34.91810 -109.28571 27794 ft 428 kts 246°
2026-05-05 00:58 34.90599 -109.31887 27786 ft 429 kts 246°
2026-05-05 00:59 34.89387 -109.35213 27787 ft 429 kts 246°
2026-05-05 00:59 34.88172 -109.38542 27788 ft 429 kts 246°
2026-05-05 00:59 34.86960 -109.41854 27800 ft 429 kts 246°
2026-05-05 00:59 34.85743 -109.45172 27811 ft 428 kts 246°
2026-05-05 01:00 34.84527 -109.48478 27816 ft 428 kts 245°
2026-05-05 01:00 34.83324 -109.51746 27822 ft 428 kts 245°
2026-05-05 01:00 34.82110 -109.55045 27829 ft 428 kts 245°
2026-05-05 01:00 34.80897 -109.58339 27826 ft 427 kts 245°
2026-05-05 01:01 34.79679 -109.61640 27820 ft 427 kts 245°
2026-05-05 01:01 34.78454 -109.64955 27818 ft 427 kts 245°
2026-05-05 01:01 34.77236 -109.68251 27820 ft 427 kts 245°
2026-05-05 01:01 34.76015 -109.71552 27816 ft 427 kts 245°
2026-05-05 01:02 34.74797 -109.74845 27819 ft 427 kts 245°
2026-05-05 01:02 34.73578 -109.78138 27819 ft 427 kts 245°
2026-05-05 01:02 34.72358 -109.81429 27825 ft 428 kts 245°
2026-05-05 01:02 34.71136 -109.84722 27822 ft 428 kts 245°
2026-05-05 01:03 34.69910 -109.88021 27826 ft 428 kts 245°
2026-05-05 01:03 34.68683 -109.91319 27824 ft 429 kts 245°
2026-05-05 01:03 34.67453 -109.94622 27846 ft 429 kts 245°
2026-05-05 01:03 34.66222 -109.97928 27847 ft 429 kts 245°
2026-05-05 01:04 34.64990 -110.01233 27848 ft 429 kts 245°
2026-05-05 01:04 34.62538 -110.07800 27856 ft 429 kts 245°
2026-05-05 01:04 34.61304 -110.11102 27859 ft 429 kts 245°
2026-05-05 01:05 34.60069 -110.14402 27837 ft 430 kts 245°
2026-05-05 01:05 34.58828 -110.17715 27847 ft 430 kts 245°
2026-05-05 01:05 34.57589 -110.21020 27865 ft 431 kts 245°
2026-05-05 01:05 34.56346 -110.24331 27867 ft 432 kts 245°
2026-05-05 01:06 34.55101 -110.27644 27866 ft 432 kts 245°
2026-05-05 01:06 34.53852 -110.30968 27871 ft 432 kts 245°
2026-05-05 01:06 34.52602 -110.34287 27890 ft 433 kts 245°
2026-05-05 01:06 34.51354 -110.37603 27884 ft 433 kts 245°
2026-05-05 01:07 34.50101 -110.40922 27878 ft 433 kts 245°
2026-05-05 01:07 34.48848 -110.44240 27862 ft 433 kts 245°
2026-05-05 01:07 34.47594 -110.47554 27891 ft 432 kts 245°
2026-05-05 01:07 34.46340 -110.50860 27894 ft 432 kts 245°
2026-05-05 01:08 34.45085 -110.54168 27894 ft 432 kts 245°
2026-05-05 01:08 34.43834 -110.57467 27904 ft 429 kts 245°
2026-05-05 01:08 34.42613 -110.60682 27883 ft 410 kts 245°
2026-05-05 01:08 34.41464 -110.63705 27884 ft 391 kts 245°
2026-05-05 01:09 34.40351 -110.66633 27887 ft 374 kts 245°
2026-05-05 01:09 34.39286 -110.69431 27883 ft 358 kts 245°
2026-05-05 01:09 34.38266 -110.72110 27888 ft 345 kts 245°
2026-05-05 01:09 34.37262 -110.74741 27900 ft 344 kts 245°
2026-05-05 01:10 34.36260 -110.77365 27889 ft 344 kts 245°
2026-05-05 01:10 34.35106 -110.79946 27435 ft 352 kts 236°
2026-05-05 01:10 34.33501 -110.82169 27065 ft 350 kts 229°
2026-05-05 01:10 34.31821 -110.84288 26562 ft 348 kts 229°
2026-05-05 01:11 34.30154 -110.86404 26085 ft 346 kts 229°
2026-05-05 01:11 34.28502 -110.88514 25618 ft 344 kts 229°
2026-05-05 01:11 34.26863 -110.90620 25148 ft 344 kts 229°
2026-05-05 01:11 34.25229 -110.92724 24698 ft 343 kts 229°
2026-05-05 01:12 34.23600 -110.94826 24221 ft 343 kts 229°
2026-05-05 01:12 34.21970 -110.96932 23766 ft 342 kts 229°
2026-05-05 01:12 34.20343 -110.99030 23253 ft 342 kts 229°
2026-05-05 01:12 34.18719 -111.01123 22762 ft 340 kts 229°
2026-05-05 01:13 34.17106 -111.03203 22277 ft 339 kts 229°
2026-05-05 01:13 34.15498 -111.05277 21890 ft 334 kts 229°
2026-05-05 01:13 34.13935 -111.07286 21788 ft 324 kts 229°
2026-05-05 01:13 34.12407 -111.09249 21437 ft 321 kts 230°
2026-05-05 01:14 34.10879 -111.11210 21016 ft 320 kts 230°
2026-05-05 01:14 34.09357 -111.13161 20576 ft 319 kts 230°
2026-05-05 01:14 34.07838 -111.15112 20161 ft 319 kts 230°
2026-05-05 01:14 34.06336 -111.17043 19731 ft 319 kts 230°
2026-05-05 01:15 34.04818 -111.18995 19298 ft 319 kts 230°
2026-05-05 01:15 34.03296 -111.20946 18821 ft 318 kts 230°
2026-05-05 01:15 34.01791 -111.22883 18387 ft 318 kts 230°
2026-05-05 01:15 34.00268 -111.24829 17888 ft 319 kts 230°
2026-05-05 01:16 33.98746 -111.26772 17431 ft 318 kts 230°
2026-05-05 01:16 33.97235 -111.28704 17016 ft 316 kts 230°
2026-05-05 01:16 33.95727 -111.30634 16566 ft 315 kts 229°
2026-05-05 01:16 33.94225 -111.32556 16112 ft 314 kts 229°
2026-05-05 01:17 33.92732 -111.34464 15658 ft 313 kts 229°
2026-05-05 01:17 33.91243 -111.36366 15229 ft 311 kts 229°
2026-05-05 01:17 33.89773 -111.38245 14938 ft 303 kts 229°
2026-05-05 01:17 33.88347 -111.40048 14775 ft 293 kts 227°
2026-05-05 01:18 33.86818 -111.41662 14392 ft 293 kts 219°
2026-05-05 01:18 33.85142 -111.43062 14009 ft 293 kts 217°
2026-05-05 01:18 33.83484 -111.44424 13568 ft 283 kts 217°
2026-05-05 01:18 33.81906 -111.45744 13166 ft 270 kts 218°
2026-05-05 01:19 33.80378 -111.47049 12795 ft 268 kts 218°
2026-05-05 01:19 33.78863 -111.48346 12422 ft 267 kts 218°
2026-05-05 01:19 33.77359 -111.49635 12066 ft 265 kts 218°
2026-05-05 01:19 33.75866 -111.50918 11705 ft 263 kts 218°
2026-05-05 01:20 33.74388 -111.52190 11338 ft 260 kts 217°
2026-05-05 01:20 33.72923 -111.53446 10987 ft 257 kts 217°
2026-05-05 01:20 33.71477 -111.54687 10760 ft 251 kts 217°
2026-05-05 01:20 33.70092 -111.55874 10631 ft 239 kts 217°
2026-05-05 01:21 33.68785 -111.56995 10518 ft 227 kts 217°
2026-05-05 01:21 33.67535 -111.58066 10413 ft 215 kts 218°
2026-05-05 01:21 33.66346 -111.59085 10327 ft 208 kts 218°
2026-05-05 01:21 33.65146 -111.60115 10157 ft 218 kts 217°
2026-05-05 01:22 33.63890 -111.61187 9884 ft 226 kts 217°
2026-05-05 01:22 33.62600 -111.62267 9525 ft 225 kts 217°
2026-05-05 01:22 33.61327 -111.63331 9183 ft 220 kts 217°
2026-05-05 01:22 33.60086 -111.64368 8862 ft 215 kts 217°
2026-05-05 01:23 33.58873 -111.65382 8545 ft 209 kts 216°
2026-05-05 01:23 33.57677 -111.66382 8036 ft 210 kts 216°
2026-05-05 01:23 33.56469 -111.67392 7382 ft 214 kts 216°
2026-05-05 01:23 33.55227 -111.68437 6891 ft 220 kts 216°
2026-05-05 01:24 33.53976 -111.69489 6645 ft 218 kts 216°
2026-05-05 01:24 33.52745 -111.70532 6266 ft 219 kts 216°
2026-05-05 01:24 33.51503 -111.71582 5851 ft 219 kts 216°
2026-05-05 01:24 33.50258 -111.72632 5443 ft 218 kts 216°
2026-05-05 01:25 33.49027 -111.73670 5035 ft 219 kts 216°
2026-05-05 01:25 33.47800 -111.74704 4795 ft 215 kts 216°
2026-05-05 01:25 33.46616 -111.75768 4575 ft 207 kts 225°
2026-05-05 01:25 33.45695 -111.77029 4448 ft 197 kts 231°
2026-05-05 01:26 33.44855 -111.78288 4304 ft 189 kts 232°
2026-05-05 01:26 33.44030 -111.79513 4120 ft 185 kts 232°
2026-05-05 01:26 33.43292 -111.80723 4043 ft 180 kts 246°
2026-05-05 01:26 33.43089 -111.82198 4021 ft 184 kts 263°
2026-05-05 01:27 33.42946 -111.83760 3747 ft 191 kts 263°
2026-05-05 01:27 33.42880 -111.85335 3502 ft 187 kts 268°
2026-05-05 01:27 33.42874 -111.86881 3224 ft 183 kts 269°
2026-05-05 01:27 33.42876 -111.88370 3005 ft 178 kts 270°
2026-05-05 01:28 33.42877 -111.89854 2759 ft 174 kts 270°
2026-05-05 01:28 33.42879 -111.91248 2590 ft 167 kts 270°
2026-05-05 01:28 33.42880 -111.92600 2334 ft 152 kts 269°
2026-05-05 01:28 33.42877 -111.93807 2146 ft 146 kts 271°
2026-05-05 01:29 33.42881 -111.95031 2037 ft 146 kts 269°
2026-05-05 01:29 33.42878 -111.96243 1789 ft 146 kts 272°
2026-05-05 01:29 33.42889 -111.97460 1630 ft 146 kts 272°
2026-05-05 01:29 33.42885 -111.98676 1409 ft 145 kts 271°
2026-05-05 01:30 33.42886 -111.99869 1199 ft 143 kts 270°
2026-05-05 01:30 33.42884 -112.01027 1130 ft 130 kts 270°
2026-05-05 01:30 33.42885 -112.01900 1133 ft 78 kts 270°
2026-05-05 01:30 33.42885 -112.02344 1127 ft 40 kts 270°
2026-05-05 01:31 33.42886 -112.02527 1119 ft 13 kts 270°
2026-05-05 01:31 33.42864 -112.02600 1119 ft 9 kts 204°
2026-05-05 01:31 33.42800 -112.02597 1124 ft 9 kts 165°
2026-05-05 01:31 33.42775 -112.02534 1119 ft 9 kts 90°
2026-05-05 01:32 33.42775 -112.02457 1128 ft 9 kts 90°
2026-05-05 01:32 33.42775 -112.02380 1128 ft 9 kts 89°
2026-05-05 01:32 33.42775 -112.02302 1128 ft 10 kts 90°
2026-05-05 01:32 33.42775 -112.02189 1128 ft 18 kts 90°
2026-05-05 01:33 33.42775 -112.02025 1128 ft 16 kts 90°
2026-05-05 01:33 33.42775 -112.01900 1128 ft 15 kts 90°
2026-05-05 01:33 33.42775 -112.01787 1130 ft 10 kts 90°
2026-05-05 01:33 33.42750 -112.01739 1132 ft 8 kts 161°
2026-05-05 01:34 33.42698 -112.01738 1132 ft 8 kts 181°
2026-05-05 01:34 33.42645 -112.01739 1131 ft 8 kts 180°
2026-05-05 01:34 33.42594 -112.01738 1132 ft 7 kts 179°
2026-05-05 01:34 33.42569 -112.01722 1132 ft 5 kts 111°
2026-05-05 01:35 33.42566 -112.01681 1133 ft 5 kts 91°
2026-05-05 01:35 33.42566 -112.01656 1133 ft 2 kts 90°
2026-05-05 01:35 33.42566 -112.01653 1132 ft 0 kts 90°